FW6321 Weather Reports


time (UTC)temp
F
wind
direction
speed
knots
gust
knots
rain 1hr
in
rain 24hr
in
rain mn
in
humidity
%
barometer
mb
20260905231804 55 202 0.9 1.7 0.00 0.00 0.00 93 1027.2
20260905231306 55 203 0.9 1.7 0.00 0.00 0.00 93 1027.2
20260905230804 55 203 0.9 1.7 0.00 0.00 0.00 93 1027.2
20260905230317 55 203 0.0 1.7 0.00 0.00 0.00 93 1027.2
20260905225802 55 203 0.0 0.9 0.00 0.00 0.00 92 1027.2
20260905225305 55 203 0.9 0.9 0.00 0.00 0.00 92 1027.2
20260905224806 55 203 0.0 0.9 0.00 0.00 0.00 92 1027.1
20260905224303 55 203 0.0 0.0 0.00 0.00 0.00 92 1027.2
20260905223803 55 203 0.0 0.0 0.00 0.00 0.00 92 1027.2
20260905223302 55 202 0.0 0.9 0.00 0.00 0.00 92 1027.2
20260905223251 55 203 0.0 0.9 0.00 0.00 0.00 92 1027.3
20260905222306 55 203 0.9 0.9 0.00 0.00 0.00 91 1027.1
20260905221804 55 203 0.0 0.9 0.00 0.00 0.00 91 1027.1
20260905221302 55 202 0.0 0.9 0.00 0.00 0.00 91 1027.1
20260905220803 56 203 0.0 1.7 0.00 0.00 0.00 91 1027.0
20260905220303 56 203 0.9 1.7 0.00 0.00 0.00 91 1027.1
20260905215802 56 203 0.9 1.7 0.00 0.00 0.00 91 1027.1
20260905215305 56 204 0.9 1.7 0.00 0.00 0.00 91 1027.0
20260905214802 56 199 0.0 1.7 0.00 0.00 0.00 91 1027.1
20260905214306 56 199 0.9 0.9 0.00 0.00 0.00 90 1027.0
20260905213804 56 199 0.0 0.9 0.00 0.00 0.00 90 1026.9
20260905213738 56 199 0.0 0.9 0.00 0.00 0.00 90 1027.0
20260905212804 56 199 0.9 1.7 0.00 0.00 0.00 90 1027.0
20260905212306 57 199 1.7 2.6 0.00 0.00 0.00 90 1026.8
20260905211803 56 188 0.9 2.6 0.00 0.00 0.00 90 1026.8
20260905211305 56 325 0.0 1.7 0.00 0.00 0.00 90 1026.8
20260905210802 56 325 0.0 1.7 0.00 0.00 0.00 89 1026.8
20260905210728 56 325 0.0 1.7 0.00 0.00 0.00 89 1026.7
20260905205801 56 325 0.0 0.9 0.00 0.00 0.00 88 1026.7
20260905205301 57 325 0.0 0.9 0.00 0.00 0.00 88 1026.8
20260905204757 57 325 0.0 0.9 0.00 0.00 0.00 88 1026.7
20260905204255 57 325 0.9 1.7 0.00 0.00 0.00 88 1026.7
20260905204233 57 325 0.9 2.6 0.00 0.00 0.00 88 1026.7
20260905203256 57 325 0.9 2.6 0.00 0.00 0.00 87 1026.7
20260905203157 58 258 0.9 1.7 0.00 0.00 0.00 87 1026.7
20260905202953 58 258 0.9 1.7 0.00 0.00 0.00 87 1026.6
20260905202236 58 258 0.0 1.7 0.00 0.00 0.00 86 1026.7
20260905201252 58 258 0.0 0.9 0.00 0.00 0.00 86 1026.6
20260905200752 58 258 0.0 0.9 0.00 0.00 0.00 85 1026.5
20260905200253 58 258 0.0 0.9 0.00 0.00 0.00 84 1026.5
20260905195751 59 258 0.0 0.9 0.00 0.00 0.00 84 1026.6
20260905195248 59 258 0.0 0.9 0.00 0.00 0.00 84 1026.5
20260905194749 59 258 0.0 0.9 0.00 0.00 0.00 83 1026.5
20260905194247 59 258 0.0 0.9 0.00 0.00 0.00 82 1026.5
20260905193749 60 258 0.0 0.9 0.00 0.00 0.00 82 1026.5
20260905193249 60 258 0.0 0.9 0.00 0.00 0.00 82 1026.5
20260905192748 60 258 0.0 0.9 0.00 0.00 0.00 81 1026.3
20260905192244 60 258 0.0 0.9 0.00 0.00 0.00 80 1026.3
20260905191744 60 258 0.0 0.9 0.00 0.00 0.00 79 1026.2
20260905191243 61 258 0.0 0.9 0.00 0.00 0.00 78 1026.4
20260905191218 61 258 0.0 0.9 0.00 0.00 0.00 77 1026.3
20260905190243 61 258 0.0 0.0 0.00 0.00 0.00 76 1026.1
20260905185742 62 258 0.0 1.7 0.00 0.00 0.00 76 1026.3
20260905185240 62 258 0.9 2.6 0.00 0.00 0.00 76 1026.2
20260905184739 62 258 0.9 2.6 0.00 0.00 0.00 75 1026.1
20260905184717 63 258 0.9 2.6 0.00 0.00 0.00 75 1026.1
20260905184226 64 253 1.7 2.6 0.00 0.00 0.00 74 1025.9
20260905183950 63 258 0.9 2.6 0.00 0.00 0.00 74 1026.1
20260905182738 64 243 1.7 3.5 0.00 0.00 0.00 73 1025.8
20260905182239 64 237 2.6 5.2 0.00 0.00 0.00 73 1025.9
20260905181737 64 239 2.6 6.1 0.00 0.00 0.00 73 1025.8
20260905181241 64 270 3.5 6.1 0.00 0.00 0.00 72 1025.9
20260905180738 65 240 3.5 7.0 0.00 0.00 0.00 72 1025.9
20260905180238 65 254 3.5 7.0 0.00 0.00 0.00 72 1025.9
20260905175740 65 243 3.5 7.8 0.00 0.00 0.00 72 1025.8
20260905175239 65 247 3.5 7.8 0.00 0.00 0.00 72 1025.8
20260905174740 65 280 3.5 7.0 0.00 0.00 0.00 72 1025.9
20260905174237 65 253 4.3 7.0 0.00 0.00 0.00 72 1025.8
20260905173738 65 260 3.5 7.0 0.00 0.00 0.00 72 1025.7
20260905173715 65 264 3.5 7.0 0.00 0.00 0.00 72 1025.8
20260905172749 65 254 4.3 8.7 0.00 0.00 0.00 71 1025.8
20260905172738 65 269 4.3 7.8 0.00 0.00 0.00 71 1025.8
20260905171740 65 261 3.5 8.7 0.00 0.00 0.00 70 1025.7
20260905171239 65 258 2.6 7.0 0.00 0.00 0.00 70 1025.7
20260905170741 65 262 3.5 7.8 0.00 0.00 0.00 70 1025.6
20260905170238 65 229 4.3 10.4 0.00 0.00 0.00 69 1025.6
20260905165737 65 287 4.3 10.4 0.00 0.00 0.00 69 1025.5
20260905165236 65 249 4.3 10.4 0.00 0.00 0.00 69 1025.6
20260905164735 65 269 4.3 7.8 0.00 0.00 0.00 68 1025.5
20260905164730 65 264 5.2 10.4 0.00 0.00 0.00 68 1025.5
20260905163738 65 230 6.1 12.2 0.00 0.00 0.00 68 1025.5
20260905163237 65 283 5.2 12.2 0.00 0.00 0.00 68 1025.4
20260905162741 65 245 4.3 8.7 0.00 0.00 0.00 68 1025.3
20260905162236 66 245 5.2 9.6 0.00 0.00 0.00 68 1025.3
20260905162215 65 241 7.0 10.4 0.00 0.00 0.00 67 1025.3
20260905161240 65 247 6.1 10.4 0.00 0.00 0.00 67 1025.3
20260905160737 65 227 6.1 10.4 0.00 0.00 0.00 67 1025.3
20260905160236 66 275 6.1 11.3 0.00 0.00 0.00 67 1025.2
20260905155738 66 245 6.1 11.3 0.00 0.00 0.00 67 1025.2
20260905155721 66 265 6.1 11.3 0.00 0.00 0.00 66 1025.1
20260905154737 66 225 6.1 13.9 0.00 0.00 0.00 66 1024.9
20260905154234 66 268 7.0 13.9 0.00 0.00 0.00 66 1024.8
20260905153735 66 247 6.1 11.3 0.00 0.00 0.00 67 1024.7
20260905153233 66 260 7.0 13.0 0.00 0.00 0.00 67 1024.8
20260905152733 66 259 7.0 13.0 0.00 0.00 0.00 67 1024.7
20260905152238 66 252 6.1 13.0 0.00 0.00 0.00 66 1024.7
20260905151738 66 265 6.1 13.9 0.00 0.00 0.00 67 1024.7
20260905151235 66 316 7.0 13.9 0.00 0.00 0.00 67 1024.7
20260905150730 66 260 7.0 15.6 0.00 0.00 0.00 67 1024.6
20260905150234 66 243 7.0 15.6 0.00 0.00 0.00 66 1024.5
20260905145732 66 261 6.1 13.9 0.00 0.00 0.00 67 1024.6
20260905145234 66 285 7.0 14.8 0.00 0.00 0.00 67 1024.5
20260905144735 67 239 7.0 14.8 0.00 0.00 0.00 65 1024.4
20260905144233 67 274 6.1 13.0 0.00 0.00 0.00 66 1024.4
20260905143732 66 266 7.0 13.9 0.00 0.00 0.00 68 1024.4
20260905143708 66 257 7.0 13.9 0.00 0.00 0.00 68 1024.3
20260905142735 66 260 7.0 13.9 0.00 0.00 0.00 69 1024.2
20260905142233 66 246 7.0 13.9 0.00 0.00 0.00 69 1024.3
20260905141732 66 250 7.0 15.6 0.00 0.00 0.00 69 1024.2
20260905141232 66 241 7.8 15.6 0.00 0.00 0.00 68 1024.2
20260905140731 67 234 7.0 13.9 0.00 0.00 0.00 68 1024.1
20260905140235 67 256 7.0 13.9 0.00 0.00 0.00 68 1024.1
20260905135730 67 268 6.1 12.2 0.00 0.00 0.00 66 1024.1
20260905135233 68 279 6.1 13.9 0.00 0.00 0.00 64 1024.1
20260905134821 69 281 7.0 13.9 0.00 0.00 0.00 65 1024.0
20260905134433 67 239 7.8 16.5 0.00 0.00 0.00 68 1023.7
20260905134423 67 292 7.8 16.5 0.00 0.00 0.00 67 1023.7
20260905134412 68 262 7.0 12.2 0.00 0.00 0.00 67 1023.7
20260905134313 69 267 7.0 13.0 0.00 0.00 0.00 66 1023.9
20260905133758 68 235 7.0 15.6 0.00 0.00 0.00 67 1023.8
20260905133442 67 276 7.0 15.6 0.00 0.00 0.00 68 1023.8
20260905130931 68 268 7.0 13.9 0.00 0.00 0.00 69 1023.6
20260905130756 68 279 7.0 13.9 0.00 0.00 0.00 67 1023.6
20260905125732 67 280 7.0 14.8 0.00 0.00 0.00 69 1023.6
20260905125227 68 245 7.0 14.8 0.00 0.00 0.00 68 1023.5
20260905124728 69 282 7.0 12.2 0.00 0.00 0.00 66 1023.5
20260905124223 69 241 7.0 14.8 0.00 0.00 0.00 67 1023.4
20260905123728 69 274 7.0 16.5 0.00 0.00 0.00 65 1023.5
20260905123319 70 310 7.8 16.5 0.00 0.00 0.00 65 1023.3
20260905123239 70 251 8.7 16.5 0.00 0.00 0.00 65 1023.3
20260905122227 70 222 7.8 14.8 0.00 0.00 0.00 63 1023.2
20260905121727 69 242 8.7 14.8 0.00 0.00 0.00 64 1023.1
20260905121311 69 236 10.4 20.9 0.00 0.01 0.00 63 1023.1
20260905121240 69 217 9.6 16.5 0.00 0.01 0.00 64 1023.1
20260905120225 69 230 9.6 20.9 0.00 0.01 0.00 65 1023.1
20260905115725 69 235 9.6 20.9 0.00 0.01 0.00 65 1023.1
20260905115223 68 225 10.4 22.6 0.00 0.01 0.00 63 1023.0
20260905114725 69 233 10.4 22.6 0.00 0.07 0.00 64 1023.0
20260905114226 68 208 11.3 21.7 0.00 0.07 0.00 64 1023.0
20260905113724 68 241 11.3 21.7 0.00 0.07 0.00 65 1022.9
20260905113226 68 268 10.4 18.2 0.00 0.07 0.00 65 1022.9
20260905112725 69 298 10.4 20.0 0.00 0.08 0.00 66 1022.8
20260905112224 69 175 10.4 20.0 0.00 0.09 0.00 66 1022.7
20260905111720 69 247 9.6 15.6 0.00 0.09 0.00 67 1022.7
20260905111221 68 227 9.6 17.4 0.00 0.09 0.00 67 1022.5
20260905110719 68 294 9.6 17.4 0.00 0.09 0.00 67 1022.6
20260905110221 67 253 10.4 23.5 0.00 0.09 0.00 67 1022.6
20260905110205 67 291 10.4 23.5 0.00 0.09 0.00 67 1022.5
20260905105708 68 236 10.4 21.7 0.00 0.09 0.00 68 1022.4
20260905104715 67 241 10.4 21.7 0.00 0.09 0.00 69 1022.4
20260905104217 67 223 10.4 18.2 0.00 0.09 0.00 68 1022.4
20260905103715 68 240 10.4 20.0 0.00 0.09 0.00 68 1022.4
20260905103218 68 234 9.6 20.0 0.00 0.09 0.00 68 1022.2
20260905102715 68 247 9.6 21.7 0.00 0.09 0.00 67 1022.2
20260905102702 68 225 9.6 21.7 0.00 0.09 0.00 66 1022.1
20260905101717 68 235 9.6 18.2 0.00 0.09 0.00 66 1022.1
20260905101217 68 243 8.7 17.4 0.00 0.09 0.00 67 1022.1
20260905100716 68 255 9.6 20.9 0.00 0.09 0.00 69 1022.0
20260905100216 68 256 10.4 21.7 0.00 0.09 0.00 68 1021.9
20260905095716 68 298 9.6 21.7 0.00 0.09 0.00 70 1021.9
20260905095212 68 207 11.3 21.7 0.00 0.09 0.00 69 1021.9
20260905094705 68 248 10.4 21.7 0.00 0.09 0.00 68 1021.8
20260905094202 69 280 8.7 17.4 0.00 0.09 0.00 70 1021.8
20260905094151 68 199 9.6 20.0 0.00 0.09 0.00 71 1021.7
20260905093644 68 237 11.3 20.0 0.00 0.09 0.00 70 1021.6
20260905093146 67 226 9.6 21.7 0.00 0.09 0.00 72 1021.7
20260905092159 67 241 10.4 21.7 0.00 0.09 0.00 72 1021.6
20260905091659 67 252 11.3 22.6 0.00 0.09 0.00 72 1021.5
20260905091159 67 247 10.4 22.6 0.00 0.09 0.00 74 1021.3
20260905090659 67 204 10.4 18.2 0.00 0.09 0.00 73 1021.4
20260905090200 67 235 10.4 21.7 0.00 0.09 0.00 73 1021.3
20260905085700 66 242 9.6 21.7 0.00 0.09 0.00 74 1021.4
20260905085201 66 290 7.8 20.0 0.00 0.09 0.00 76 1021.2
20260905084701 66 255 7.0 15.6 0.00 0.09 0.00 76 1021.1
20260905084153 66 231 6.1 12.2 0.00 0.09 0.00 77 1021.0
20260905083652 66 246 7.8 17.4 0.00 0.09 0.00 76 1021.0
20260905083148 66 275 10.4 17.4 0.00 0.09 0.00 75 1021.0
20260905082651 66 229 9.6 16.5 0.00 0.09 0.00 76 1020.8
20260905082151 66 240 8.7 14.8 0.00 0.09 0.00 77 1020.7
20260905082130 66 230 7.8 14.8 0.00 0.09 0.00 77 1020.6
20260905081634 65 242 7.8 14.8 0.00 0.09 0.00 79 1020.5
20260905081148 65 227 7.8 14.8 0.00 0.09 0.00 78 1020.5
20260905080150 65 239 7.0 14.8 0.00 0.09 0.00 79 1020.4
20260905075650 65 208 6.1 13.9 0.00 0.09 0.00 80 1020.4
20260905075150 65 241 7.0 13.9 0.00 0.09 0.00 80 1020.4
20260905075137 65 204 7.8 13.9 0.00 0.09 0.00 80 1020.2
20260905074147 65 211 7.8 16.5 0.00 0.09 0.00 81 1020.2
20260905073648 64 260 7.8 16.5 0.00 0.09 0.00 81 1019.9
20260905073151 64 233 8.7 16.5 0.00 0.09 0.00 82 1020.0
20260905073132 64 230 8.7 16.5 0.00 0.09 0.00 82 1020.0
20260905072146 64 240 7.0 13.9 0.00 0.09 0.00 83 1019.9
20260905071648 64 241 6.1 12.2 0.00 0.09 0.00 84 1019.8
20260905071149 64 237 6.1 10.4 0.00 0.09 0.00 85 1019.7
20260905070650 63 273 6.1 11.3 0.00 0.09 0.00 85 1019.7
20260905070235 63 177 5.2 10.4 0.00 0.09 0.00 86 1019.6
20260905070203 63 233 5.2 11.3 0.00 0.09 0.00 86 1019.7
20260905065148 63 239 4.3 10.4 0.00 0.09 0.00 86 1019.7
20260905065136 62 253 4.3 8.7 0.00 0.09 0.00 87 1019.5
20260905064147 62 218 3.5 8.7 0.00 0.09 0.00 87 1019.5
20260905063849 62 216 4.3 7.8 0.00 0.09 0.00 87 1019.5
20260905063353 62 223 4.3 7.8 0.00 0.09 0.00 88 1019.5
20260905062151 62 208 3.5 7.8 0.00 0.09 0.00 89 1019.3
20260905061646 61 211 4.3 8.7 0.00 0.09 0.00 90 1019.2
20260905061144 61 229 3.5 8.7 0.00 0.09 0.00 90 1019.2
20260905060641 60 185 3.5 8.7 0.00 0.09 0.00 91 1019.2
20260905060140 60 229 3.5 8.7 0.00 0.09 0.00 91 1019.2
20260905055641 60 232 3.5 7.0 0.00 0.09 0.00 91 1019.1
20260905055142 60 214 2.6 7.0 0.00 0.09 0.00 91 1019.1
20260905054640 59 210 2.6 7.0 0.00 0.09 0.00 91 1019.1
20260905054139 59 247 2.6 7.0 0.00 0.09 0.00 92 1019.0
20260905053639 59 189 3.5 7.0 0.00 0.09 0.00 91 1018.9
20260905053140 58 200 2.6 7.0 0.00 0.09 0.00 91 1018.9
20260905052638 58 221 2.6 7.0 0.00 0.09 0.00 91 1018.9
20260905052136 58 197 2.6 5.2 0.00 0.09 0.00 91 1018.8
20260905051638 58 222 2.6 6.1 0.00 0.09 0.00 91 1018.7
20260905051135 58 219 2.6 6.1 0.00 0.09 0.00 91 1018.7
20260905050637 58 209 2.6 5.2 0.00 0.09 0.00 91 1018.6
20260905050133 58 212 2.6 6.1 0.00 0.09 0.00 91 1018.6
20260905045634 58 215 2.6 7.8 0.00 0.09 0.00 91 1018.5
20260905045609 58 234 3.5 7.8 0.00 0.09 0.00 91 1018.5
20260905044631 58 220 2.6 7.0 0.00 0.09 0.00 91 1018.5
20260905044130 58 224 2.6 7.0 0.00 0.09 0.00 91 1018.4
20260905043630 58 242 2.6 7.0 0.00 0.09 0.00 90 1018.3
20260905043135 58 225 2.6 7.0 0.00 0.09 0.00 90 1018.3
20260905042631 58 245 2.6 5.2 0.00 0.09 0.00 90 1018.3
20260905042130 58 232 2.6 6.1 0.00 0.09 0.00 90 1018.3
20260905041634 58 233 2.6 6.1 0.00 0.09 0.00 90 1018.3
20260905041132 58 233 2.6 5.2 0.00 0.09 0.00 90 1018.3
20260905040833 58 229 2.6 7.0 0.00 0.09 0.00 90 1018.3
20260905040337 58 205 2.6 7.0 0.00 0.09 0.00 89 1018.2
20260905035130 57 202 2.6 6.1 0.00 0.09 0.00 89 1018.2
20260905035119 57 221 2.6 6.1 0.00 0.09 0.00 88 1018.1
20260905034132 57 220 1.7 4.3 0.00 0.09 0.00 88 1018.1
20260905034120 57 201 1.7 3.5 0.00 0.09 0.00 88 1018.1
20260905033132 57 208 1.7 3.5 0.00 0.09 0.00 87 1018.1
20260905032632 57 207 1.7 4.3 0.00 0.09 0.00 87 1018.2
20260905032131 58 208 1.7 4.3 0.00 0.09 0.00 87 1018.0
20260905031628 58 203 1.7 3.5 0.00 0.09 0.00 86 1018.0
20260905031610 58 208 1.7 3.5 0.00 0.09 0.00 86 1017.9
20260905031106 58 224 1.7 3.5 0.00 0.09 0.00 86 1017.8
20260905030125 58 216 1.7 3.5 0.00 0.09 0.00 86 1017.8
20260905025625 59 222 1.7 5.2 0.00 0.09 0.00 86 1017.6
20260905025123 59 237 2.6 5.2 0.00 0.09 0.00 86 1017.6
20260905024623 59 217 2.6 5.2 0.00 0.09 0.00 85 1017.6
20260905024122 59 224 2.6 6.1 0.00 0.09 0.00 85 1017.6
20260905023622 59 236 2.6 6.1 0.00 0.09 0.00 85 1017.6
20260905023123 59 233 2.6 5.2 0.00 0.09 0.00 85 1017.5
20260905022624 59 229 3.5 7.0 0.00 0.09 0.00 85 1017.6
20260905022601 59 226 4.3 7.8 0.00 0.09 0.00 85 1017.6
20260905021620 59 241 3.5 7.8 0.00 0.09 0.00 86 1017.6
20260905021123 59 227 3.5 7.0 0.00 0.09 0.00 86 1017.6
20260905020623 59 223 2.6 7.0 0.00 0.09 0.00 86 1017.5
20260905020618 59 206 2.6 6.1 0.00 0.09 0.00 86 1017.5
20260905020108 59 235 2.6 6.1 0.00 0.09 0.00 86 1017.5
20260905015119 59 227 2.6 7.0 0.00 0.09 0.00 86 1017.5
20260905015108 59 246 2.6 7.0 0.00 0.09 0.00 86 1017.5
20260905014115 59 244 2.6 6.1 0.00 0.09 0.00 86 1017.5
20260905014101 59 246 2.6 6.1 0.00 0.09 0.00 86 1017.3
20260905013113 59 216 2.6 7.0 0.00 0.09 0.00 86 1017.4
20260905012612 59 235 2.6 7.0 0.00 0.09 0.00 85 1017.4
20260905012115 59 207 2.6 6.1 0.00 0.09 0.00 85 1017.3
20260905011614 59 218 2.6 4.3 0.00 0.09 0.00 85 1017.3
20260905011113 59 224 1.7 4.3 0.00 0.09 0.00 85 1017.4
20260905010615 59 229 1.7 3.5 0.00 0.09 0.00 84 1017.4
20260905010113 60 214 1.7 4.3 0.00 0.09 0.00 84 1017.2
20260905005614 60 218 1.7 4.3 0.00 0.09 0.00 84 1017.3
20260905005113 60 217 2.6 5.2 0.00 0.09 0.00 84 1017.2
20260905004613 60 238 2.6 7.8 0.00 0.09 0.00 84 1017.3
20260905004552 60 238 2.6 7.8 0.00 0.09 0.00 84 1017.3
20260905003610 60 211 2.6 6.1 0.00 0.09 0.00 84 1017.2
20260905003113 60 232 2.6 6.1 0.00 0.09 0.00 84 1017.3
20260905002611 60 241 2.6 6.1 0.00 0.09 0.00 84 1017.2
20260905002115 60 240 2.6 6.1 0.00 0.09 0.00 84 1017.3
20260905001610 60 199 2.6 5.2 0.00 0.09 0.00 84 1017.3
20260905001558 60 221 2.6 5.2 0.00 0.09 0.00 83 1017.3
20260905000607 60 195 1.7 5.2 0.00 0.09 0.00 83 1017.3
20260905000104 60 210 2.6 5.2 0.00 0.09 0.00 83 1017.3
20260904235604 60 218 2.6 6.1 0.00 0.09 0.00 83 1017.1
20260904235105 60 206 3.5 6.1 0.00 0.09 0.00 83 1017.1
20260904234602 60 220 3.5 6.1 0.00 0.09 0.00 83 1017.0
20260904234102 60 239 2.6 6.1 0.00 0.09 0.00 82 1017.0
20260904233608 60 238 2.6 5.2 0.00 0.09 0.00 82 1016.9
20260904233104 61 235 2.6 6.1 0.00 0.09 0.00 82 1017.0
20260904232605 61 230 2.6 6.1 0.00 0.09 0.00 81 1017.0